Tracking 19817 objects as of 19-Aug-2019
HD Live streaming from Space Station
objects crossing your sky now

COSMOS 2251 DEB

Track COSMOS 2251 DEB now!
10-day predictions


NORAD ID: 35446
Int'l Code: 1993-036AKQ
Perigee: 669.0 km
Apogee: 781.5 km
Inclination: 74.0 °
Period: 99.2 minutes
Semi major axis: 7096 km
RCS: 0.0088 m2 (small)
Launch date: June 16, 1993
Source: Commonwealth of Independent States (former USSR) (CIS)
Launch site: PLESETSK MISSILE AND SPACE COMPLEX (PKMTR)

Note: This is SATELLITE DEBRIS
aabbcc
Your satellite tracking list
Your tracking list is empty




NASA's NSSDC Master Catalog

Two Line Element Set (TLE):
1 35446U 93036AKQ 19228.71199081 +.00000003 +00000-0 +79951-5 0  9990
2 35446 074.0489 354.4591 0079261 338.2464 021.5336 14.52323357544572
Source of the keplerian elements: AFSPC